TimeMDT,TemperatureF,Dew PointF,Humidity,Sea Level PressureIn,VisibilityMPH,Wind Direction,Wind SpeedMPH,Gust SpeedMPH,PrecipitationIn,Events,Conditions,WindDirDegrees,DateUTC
12:53 AM,57.0,37.0,47,29.85,10.0,SSW,10.4,-,N/A,,Clear,210,2013-05-15 06:53:00
1:53 AM,57.0,37.0,47,29.87,10.0,SSW,9.2,-,N/A,,Clear,200,2013-05-15 07:53:00
2:53 AM,57.9,39.9,51,29.86,10.0,South,10.4,-,N/A,,Clear,190,2013-05-15 08:53:00
3:53 AM,53.1,39.9,61,29.88,10.0,SSW,9.2,-,N/A,,Clear,210,2013-05-15 09:53:00
4:53 AM,50.0,39.9,68,29.89,10.0,SW,8.1,-,N/A,,Clear,220,2013-05-15 10:53:00
5:53 AM,51.1,41.0,68,29.88,10.0,SSW,4.6,-,N/A,,Clear,210,2013-05-15 11:53:00
6:53 AM,50.0,42.1,74,29.90,10.0,Calm,Calm,-,N/A,,Clear,0,2013-05-15 12:53:00
7:53 AM,57.0,42.1,57,29.90,10.0,SSW,6.9,-,N/A,,Clear,210,2013-05-15 13:53:00
8:53 AM,59.0,42.1,53,29.91,10.0,SSW,9.2,-,N/A,,Clear,210,2013-05-15 14:53:00
9:53 AM,63.0,41.0,45,29.89,10.0,SSW,12.7,-,N/A,,Clear,200,2013-05-15 15:53:00
10:53 AM,66.0,39.9,38,29.88,10.0,SW,11.5,-,N/A,,Clear,230,2013-05-15 16:53:00
11:53 AM,70.0,37.9,31,29.87,10.0,SSW,10.4,-,N/A,,Clear,200,2013-05-15 17:53:00
12:53 PM,72.0,39.0,30,29.85,10.0,SSW,10.4,20.7,N/A,,Clear,210,2013-05-15 18:53:00
1:53 PM,75.9,32.0,20,29.81,10.0,WSW,13.8,19.6,N/A,,Clear,240,2013-05-15 19:53:00
2:53 PM,77.0,34.0,21,29.78,10.0,SW,13.8,18.4,N/A,,Clear,220,2013-05-15 20:53:00
3:53 PM,79.0,36.0,21,29.75,10.0,SSW,16.1,20.7,N/A,,Clear,200,2013-05-15 21:53:00
4:53 PM,79.0,33.1,19,29.73,10.0,SW,15.0,24.2,N/A,,Scattered Clouds,230,2013-05-15 22:53:00
5:53 PM,79.0,34.0,20,29.71,10.0,SSW,18.4,24.2,N/A,,Clear,210,2013-05-15 23:53:00
6:53 PM,73.9,32.0,21,29.73,10.0,WSW,13.8,-,N/A,,Partly Cloudy,240,2013-05-16 00:53:00
7:53 PM,72.0,33.1,24,29.72,10.0,SW,11.5,-,N/A,,Scattered Clouds,230,2013-05-16 01:53:00
8:53 PM,69.1,35.1,29,29.73,10.0,SSW,11.5,-,N/A,,Clear,210,2013-05-16 02:53:00
9:53 PM,66.0,39.0,37,29.74,10.0,South,4.6,-,N/A,,Clear,190,2013-05-16 03:53:00
10:53 PM,63.0,39.9,43,29.74,10.0,SSW,9.2,-,N/A,,Clear,210,2013-05-16 04:53:00
11:53 PM,64.0,39.0,40,29.73,10.0,South,10.4,-,N/A,,Scattered Clouds,190,2013-05-16 05:53:00